Location: Sungai Bunut
(2.6333°N, 113.7333°E)
Time: 01:03:20
(UTC+00:00)

S-56A Canister/Altair - Pass Details

Date: 08 December 2023
Orbit: 640 x 2488 km, 38.9° (Epoch: 24 February)

Event Time Altitude Azimuth Distance (km) Brightness Sun altitude
Rises 01:51:13 0° 270° (W) 4,354 11.1 46.4°
Reaches altitude 10° 01:58:10 10° 310° (NW) 2,791 10.1 47.8°
Maximum altitude 01:58:51 10° 316° (NW) 2,724 10.0 47.9°
Drops below altitude 10° 01:59:32 10° 322° (NW) 2,681 10.0 48.1°
Sets 02:04:54 0° 7° (N) 3,228 10.5 49.1°
